• Join FlightAware (Why Join?)
  • Login
  • US Flag 
11:58PM EST


 

Airport Tracker/Info


-or-


 

Live Flight TrackerFlight Track Log ✈ UPS984 ✈ 08-Nov-2013 ✈ KBFI - KGEG

Flight Track Log - Related Links

Times and Time Zones

All times are in EST time to prevent confusion due to time zone crossing. See the UPS984 flight status page for this flight to view local times or setup timezone preferences in your user account.

Time Position Orientation Groundspeed Altitude Reporting Facility
EST Latitude Longitude Course Direction KTS MPH feet Rate Location/Type
09:03AM 47.5097 -122.2889 146° Southeast 149 171 1,800  Level Seattle Center
09:04AM 47.4800 -122.2594 146° Southeast 197 227 3,000 1,826 Climbing Seattle Center
09:04AM 47.4778 -122.2542 122° Southeast 179 206 3,200 2,677 Climbing Seattle Center
09:05AM 47.4572 -122.1653 109° East 256 295 5,900 2,777 Climbing Seattle Center
09:06AM 47.4817 -122.0536 72° East 286 329 8,800 2,550 Climbing Seattle Center
09:07AM 47.5019 -121.9303 76° East 307 353 11,000 2,033 Climbing Seattle Center
09:08AM 47.5239 -121.7844 77° East 364 419 12,900 1,835 Climbing Seattle Center
09:09AM 47.5475 -121.6283 77° East 395 455 14,700 1,835 Climbing Seattle Center
09:10AM 47.5606 -121.4581 83° East 419 482 16,600 1,736 Climbing Seattle Center
09:11AM 47.5550 -121.2883 93° East 434 499 18,200 1,785 Climbing Seattle Center
09:12AM 47.5508 -121.1050 92° East 444 511 20,200 1,388 Climbing Seattle Center
09:13AM 47.5475 -120.9150 91° East 456 525 21,000 397 Climbing Seattle Center
09:14AM 47.5447 -120.7333 91° East 466 536 21,000  Level Seattle Center
09:15AM 47.5422 -120.5422 91° East 466 536 21,000  Level Seattle Center
09:16AM 47.5375 -120.3531 92° East 464 534 21,000  Level Seattle Center
09:17AM 47.5283 -120.1642 94° East 463 533 21,000  Level Seattle Center
09:18AM 47.5169 -119.9378 94° East 463 533 21,000  Level Seattle Center
09:19AM 47.5061 -119.7497 95° East 462 532 21,000  Level Seattle Center
09:20AM 47.4975 -119.5608 94° East 462 532 21,000 -50 Level Seattle Center
09:21AM 47.4861 -119.3733 95° East 458 527 20,900  Descending Seattle Center
09:22AM 47.4761 -119.1906 95° East 455 524 21,000 50 Climbing Seattle Center
09:23AM 47.4672 -119.0067 94° East 450 518 21,000 -50 Level Seattle Center
09:24AM 47.4550 -118.8197 95° East 456 525 20,900 -787 Descending Seattle Center
09:25AM 47.4456 -118.6369 94° East 452 520 19,400 -1,785 Descending Seattle Center
09:26AM 47.4347 -118.4589 95° East 441 507 17,300 -2,083 Descending Seattle Center
09:27AM 47.4389 -118.2864 88° East 423 487 15,200 -1,934 Descending Seattle Center
09:28AM 47.4744 -118.1336 71° East 395 455 13,400 -1,835 Descending Seattle Center
09:29AM 47.5244 -118.0014 61° Northeast 368 423 11,500 -1,475 Descending Seattle Center
09:30AM 47.5669 -117.8944 59° Northeast 304 350 10,400 -1,190 Descending Seattle Center
09:31AM 47.6078 -117.7903 60° Northeast 295 339 9,100 -1,488 Descending Seattle Center
09:32AM 47.6486 -117.6881 59° Northeast 290 334 7,400 -1,388 Descending Seattle Center
09:33AM 47.6992 -117.6017 49° Northeast 277 319 6,300 -992 Descending Seattle Center
09:34AM 47.7514 -117.5294 43° Northeast 256 295 5,400 -639 Descending Seattle Center
09:35AM 47.7933 -117.4572 49° Northeast 239 275 5,000 -347 Descending Seattle Center
09:36AM 47.7642 -117.3847 121° Southeast 210 242 4,700 -298 Descending Seattle Center
09:37AM 47.7222 -117.3831 178° South 181 208 4,400 -347 Descending Seattle Center
09:38AM 47.6906 -117.4292 224° Southwest 162 186 4,000 -545 Descending Seattle Center
09:40AM 47.6639 -117.4700 226° Southwest 143 165 3,300 -738 Descending Seattle Center
09:41AM 47.6381 -117.5086 225° Southwest 112 129 2,500 -496 Descending Seattle Center
09:42AM 47.6222 -117.5328 226° Southwest 106 122 2,300 -200 Descending Seattle Center